North Bend, OR

12:18 PM PST on January 24, 2017 (GMT -0800)
North Bend Municipal

Weather History for KOTH - October, 2011

Change the Weather History Date:

Monday, October 17, 2011

  Actual Average Record
Temperature  
Mean Temperature 58 °F 53 °F  
Max Temperature 73 °F 61 °F 88 °F (1936)
Min Temperature 43 °F 46 °F 34 °F (1971)
Degree Days  
Heating Degree Days 7 12  
Month to date heating degree days 146 182  
Since 1 July heating degree days 697 790  
Cooling Degree Days 0 0  
Month to date cooling degree days 0 0  
Year to date cooling degree days 1 2  
Growing Degree Days 8 (Base 50)    
Moisture  
Dew Point 44 °F    
Average Humidity 69    
Maximum Humidity 89    
Minimum Humidity 35    
Precipitation  
Precipitation 0.00 in 0.16 in 1.76 in (1920)
Month to date precipitation 2.26 1.93  
Year to date precipitation 30.44 40.75  
Sea Level Pressure  
Sea Level Pressure 30.25 in    
Wind  
Wind Speed 5 mph (North)    
Max Wind Speed 14 mph    
Max Gust Speed -    
Visibility 9 miles    
Events      
T = Trace of Precipitation, MM = Missing Value Source: NWS Daily Summary

Daily Weather History Graph

Daily Weather History Graph

Search for Another Location

Airport or City:

Trip Planner

Search our weather history database for the weather conditions in past years. The results will help you decide how hot, cold, wet, or windy it might be!

Date:

Astronomy

Oct. 17, 2011 Rise Set
Actual Time 7:33 AM PDT 6:30 PM PDT
Civil Twilight 7:04 AM PDT 6:59 PM PDT
Nautical Twilight 6:31 AM PDT 7:32 PM PDT
Astronomical Twilight 5:58 AM PDT 8:05 PM PDT
Moon 10:10 PM PDT (10/17) 12:51 PM PDT (10/17)
Length of Visible Light 11h 55m
Length of Day
10h 57m
Waning Gibbous, 73% of the Moon is Illuminated
Oct 17
Waning Gibbous
Oct 19
Last Quarter
Oct 26
New
Nov 2
First Quarter
Nov 10
Full

Hourly Weather History & Observations

Time (PDT) Temp. Windchill Dew Point Humidity Pressure Visibility Wind Dir Wind Speed Gust Speed Precip Events Conditions
12:15 AM 48.2 °F - 42.8 °F 82% 30.30 in 4.0 mi Calm Calm - N/A   Clear
12:35 AM 48.2 °F - 42.8 °F 82% 30.30 in 10.0 mi NE 3.5 mph - N/A   Clear
12:55 AM 48.2 °F - 42.8 °F 82% 30.30 in 10.0 mi NNE 5.8 mph - N/A   Clear
1:15 AM 48.2 °F - 44.6 °F 87% 30.29 in 10.0 mi Calm Calm - N/A   Clear
1:35 AM 48.2 °F - 42.8 °F 82% 30.29 in 10.0 mi NNE 5.8 mph - N/A   Partly Cloudy
1:55 AM 48.2 °F - 42.8 °F 82% 30.30 in 10.0 mi NNE 5.8 mph - N/A   Clear
2:15 AM 44.6 °F 43.1 °F 37.4 °F 76% 30.29 in 10.0 mi SSE 3.5 mph - N/A   Scattered Clouds
2:35 AM 44.6 °F 43.1 °F 39.2 °F 81% 30.29 in 0.2 mi South 3.5 mph - N/A   Overcast
2:55 AM 44.6 °F - 39.2 °F 81% 30.29 in 0.2 mi Calm Calm - N/A   Overcast
3:15 AM 44.6 °F - 39.2 °F 81% 30.30 in 0.2 mi Calm Calm - N/A   Overcast
3:35 AM 44.6 °F - 39.2 °F 81% 30.30 in 0.8 mi Calm Calm - N/A   Overcast
3:55 AM 42.8 °F - 39.2 °F 87% 30.30 in 0.5 mi Calm Calm - N/A   Overcast
4:15 AM 46.4 °F 43.5 °F 42.8 °F 87% 30.29 in 10.0 mi NNE 5.8 mph - N/A   Scattered Clouds
4:35 AM 46.4 °F 44.3 °F 41.0 °F 81% 30.30 in 7.0 mi North 4.6 mph - N/A   Mostly Cloudy
4:55 AM 46.4 °F 42.9 °F 42.8 °F 87% 30.30 in 9.0 mi North 6.9 mph - N/A   Mostly Cloudy
5:15 AM 46.4 °F 45.2 °F 41.0 °F 81% 30.30 in 10.0 mi North 3.5 mph - N/A   Partly Cloudy
5:35 AM 46.4 °F 45.2 °F 41.0 °F 81% 30.30 in 10.0 mi NNE 3.5 mph - N/A   Partly Cloudy
5:55 AM 46.4 °F 44.3 °F 41.0 °F 81% 30.31 in 10.0 mi North 4.6 mph - N/A   Clear
6:15 AM 46.4 °F 43.5 °F 41.0 °F 81% 30.30 in 10.0 mi North 5.8 mph - N/A   Clear
6:35 AM 46.4 °F - 41.0 °F 81% 30.29 in 10.0 mi Calm Calm - N/A   Clear
6:55 AM 44.6 °F 43.1 °F 37.4 °F 76% 30.29 in 8.0 mi SE 3.5 mph - N/A   Clear
7:15 AM 48.2 °F - 44.6 °F 87% 30.29 in 10.0 mi ESE 9.2 mph - N/A   Clear
7:35 AM 48.2 °F - 42.8 °F 82% 30.29 in 10.0 mi ENE 6.9 mph - N/A   Clear
7:55 AM 46.4 °F 43.5 °F 41.0 °F 81% 30.30 in 10.0 mi NNW 5.8 mph - N/A   Clear
8:35 AM 48.2 °F - 42.8 °F 82% 30.31 in 10.0 mi North 5.8 mph - N/A   Clear
8:55 AM 50.0 °F - 44.6 °F 82% 30.31 in 10.0 mi North 4.6 mph - N/A   Clear
9:15 AM 51.8 °F - 44.6 °F 76% 30.31 in 10.0 mi NNE 3.5 mph - N/A   Clear
9:35 AM 53.6 °F - 46.4 °F 77% 30.30 in 10.0 mi North 5.8 mph - N/A   Clear
9:55 AM 55.4 °F - 46.4 °F 72% 30.29 in 10.0 mi NNE 5.8 mph - N/A   Clear
10:15 AM 55.4 °F - 46.4 °F 72% 30.29 in 10.0 mi North 5.8 mph - N/A   Clear
10:35 AM 57.2 °F - 46.4 °F 67% 30.29 in 10.0 mi Calm Calm - N/A   Clear
10:55 AM 57.2 °F - 46.4 °F 67% 30.28 in 10.0 mi Calm Calm - N/A   Clear
11:15 AM 59.0 °F - 46.4 °F 63% 30.27 in 10.0 mi Calm Calm - N/A   Clear
11:35 AM 60.8 °F - 46.4 °F 59% 30.27 in 10.0 mi Calm Calm - N/A   Clear
11:55 AM 62.6 °F - 46.4 °F 55% 30.26 in 10.0 mi North 3.5 mph - N/A   Clear
12:15 PM 64.4 °F - 46.4 °F 52% 30.26 in 10.0 mi NW 3.5 mph - N/A   Clear
12:35 PM 66.2 °F - 46.4 °F 49% 30.25 in 10.0 mi NNE 3.5 mph - N/A   Clear
12:55 PM 69.8 °F - 44.6 °F 40% 30.23 in 10.0 mi NNE 5.8 mph - N/A   Clear
1:15 PM 69.8 °F - 44.6 °F 40% 30.22 in 10.0 mi Calm Calm - N/A   Clear
1:35 PM 69.8 °F - 44.6 °F 40% 30.22 in 10.0 mi WNW 3.5 mph - N/A   Clear
1:55 PM 69.8 °F - 48.2 °F 46% 30.21 in 10.0 mi West 5.8 mph - N/A   Clear
2:15 PM 69.8 °F - 46.4 °F 43% 30.21 in 10.0 mi West 5.8 mph - N/A   Clear
2:35 PM 71.6 °F - 46.4 °F 41% 30.20 in 10.0 mi West 3.5 mph - N/A   Clear
2:55 PM 73.4 °F - 44.6 °F 36% 30.20 in 10.0 mi WNW 4.6 mph - N/A   Clear
3:15 PM 68.0 °F - 50.0 °F 52% 30.20 in 10.0 mi NNW 9.2 mph - N/A   Clear
3:35 PM 66.2 °F - 50.0 °F 56% 30.19 in 10.0 mi NNW 10.4 mph - N/A   Clear
3:55 PM 66.2 °F - 48.2 °F 52% 30.19 in 10.0 mi North 12.7 mph - N/A   Clear
4:15 PM 64.4 °F - 50.0 °F 59% 30.19 in 10.0 mi North 13.8 mph - N/A   Clear
4:35 PM 64.4 °F - 48.2 °F 56% 30.18 in 10.0 mi North 12.7 mph - N/A   Clear
4:55 PM 62.6 °F - 48.2 °F 59% 30.17 in 10.0 mi North 13.8 mph - N/A   Clear
5:15 PM 62.6 °F - 48.2 °F 59% 30.17 in 10.0 mi North 11.5 mph - N/A   Clear
5:35 PM 60.8 °F - 48.2 °F 63% 30.16 in 10.0 mi North 11.5 mph - N/A   Clear
5:55 PM 60.8 °F - 48.2 °F 63% 30.16 in 9.0 mi North 11.5 mph - N/A   Clear
6:15 PM 59.0 °F - 48.2 °F 67% 30.16 in 9.0 mi North 10.4 mph - N/A   Clear
6:35 PM 57.2 °F - 46.4 °F 67% 30.16 in 9.0 mi North 8.1 mph - N/A   Clear
6:55 PM 57.2 °F - 46.4 °F 67% 30.16 in 9.0 mi North 5.8 mph - N/A   Clear
7:15 PM 57.2 °F - 46.4 °F 67% 30.15 in 10.0 mi North 5.8 mph - N/A   Clear
7:35 PM 57.2 °F - 44.6 °F 63% 30.15 in 8.0 mi North 6.9 mph - N/A   Clear
7:55 PM 55.4 °F - 44.6 °F 67% 30.15 in 8.0 mi NNE 5.8 mph - N/A   Clear
8:15 PM 55.4 °F - 44.6 °F 67% 30.14 in 10.0 mi Calm Calm - N/A   Clear
8:35 PM 55.4 °F - 44.6 °F 67% 30.14 in 10.0 mi North 3.5 mph - N/A   Clear
8:55 PM 53.6 °F - 42.8 °F 67% 30.13 in 10.0 mi Calm Calm - N/A   Clear
9:15 PM 53.6 °F - 42.8 °F 67% 30.12 in 10.0 mi Calm Calm - N/A   Clear
9:35 PM 53.6 °F - 41.0 °F 62% 30.13 in 10.0 mi Calm Calm - N/A   Clear
9:55 PM 53.6 °F - 39.2 °F 58% 30.12 in 10.0 mi Calm Calm - N/A   Clear
10:15 PM 53.6 °F - 41.0 °F 62% 30.12 in 10.0 mi Calm Calm - N/A   Clear
10:35 PM 51.8 °F - 39.2 °F 62% 30.12 in 10.0 mi Calm Calm - N/A   Clear
10:55 PM 50.0 °F - 39.2 °F 66% 30.11 in 10.0 mi Calm Calm - N/A   Clear
11:15 PM 51.8 °F - 42.8 °F 71% 30.11 in 10.0 mi Calm Calm - N/A   Clear
11:35 PM 50.0 °F - 42.8 °F 76% 30.11 in 10.0 mi NNE 5.8 mph - N/A   Clear
11:55 PM 50.0 °F - 42.8 °F 76% 30.10 in 10.0 mi NNE 3.5 mph - N/A   Clear